Probability
0 0 0 0 0 0 0 0 0 0 0 0 0 0 0 0 0 0 0 0 0 0 0 0 0 0 0 0 0 0 0 0 0 0 1 3 2 1
0 0 0 0 0 0 0 0 0 0 0 0 0 0 0 0 0 0 0 0 0 0 0 0 0 0 0 0 0 0 0 0 0 0 1 2 2 1
0 0 0 0 0 0 0 0 0 0 0 0 0 0 0 0 0 0 0 0 0 0 0 0 0 0 0 0 0 0 0 0 0 0 1 1 1 0
0 0 0 0 0 0 0 0 0 0 0 0 0 0 0 0 0 0 0 0 0 0 0 0 0 0 0 0 0 0 0 0 0 0 0 0 0 0
0 0 0 0 0 0 0 0 0 0 0 0 0 0 0 0 0 0 0 0 0 0 0 0 0 0 0 0 0 0 0 0 0 0 0 0 0 0
0 0 0 0 0 0 0 0 0 0 0 0 0 0 0 0 0 0 0 0 0 0 0 0 0 0 0 0 0 0 0 0 0 0 0 0 0 0
0 0 0 0 0 0 0 0 0 0 0 0 0 0 0 0 0 0 0 0 0 0 0 0 0 0 0 0 0 0 0 0 0 0 0 0 0 0
0 0 0 0 0 0 0 0 0 0 0 0 0 0 0 0 0 0 0 0 0 0 0 0 0 0 0 0 0 0 0 0 0 0 0 0 0 0
0 0 0 0 0 0 0 0 0 0 0 0 0 0 0 0 0 0 0 0 0 0 0 0 0 0 0 0 0 0 0 0 0 0 0 0 0 0
0 0 0 0 0 0 0 0 0 0 0 0 0 0 0 0 0 0 0 0 0 0 0 0 0 0 0 0 0 0 0 0 0 0 0 0 0 0
0 0 0 0 0 0 0 0 0 0 0 0 0 0 0 0 0 0 0 0 0 0 0 0 0 0 0 0 0 0 0 0 0 0 0 0 0 0
0 0 0 0 0 0 0 0 0 0 0 0 0 0 0 0 0 0 0 0 0 0 0 0 0 0 0 0 0 0 0 0 0 0 0 0 0 0
0 0 0 0 0 0 0 0 0 0 0 0 0 0 0 0 0 0 0 0 0 0 0 0 0 0 0 0 0 0 0 0 0 0 0 0 0 0
0 0 0 0 0 0 0 0 0 0 0 0 0 0 0 0 0 0 0 0 0 0 0 0 0 0 0 0 0 0 0 0 0 0 0 0 0 0
0 0 0 0 0 0 0 0 0 0 0 0 0 0 0 0 0 0 0 0 0 0 0 0 0 0 0 0 0 0 0 0 0 0 0 0 0 0
0 0 0 0 0 0 0 0 0 0 0 0 0 0 0 0 0 0 0 0 0 0 0 0 0 0 0 0 0 0 0 0 0 0 0 0 0 0
0 0 0 0 0 0 0 0 0 0 0 0 0 0 0 0 0 0 0 0 0 0 0 0 0 0 0 0 0 0 0 0 0 0 0 0 0 0
0 0 0 0 0 0 0 0 0 0 0 0 0 0 0 0 0 0 0 0 0 0 0 0 0 0 0 0 0 0 0 0 0 0 0 0 0 0
0 0 0 0 0 0 0 0 0 0 0 0 0 0 0 0 0 0 0 0 0 0 0 0 0 0 0 0 0 0 0 0 0 0 0 0 0 0
0 0 0 0 0 0 0 0 0 0 0 0 0 0 0 0 0 0 0 0 0 0 0 0 0 0 0 0 0 0 0 0 0 0 0 0 0 0
0 0 0 0 0 0 0 0 0 0 0 0 0 0 0 0 0 0 0 0 0 0 0 0 0 0 0 0 0 0 0 0 0 0 0 0 0 0
0 0 0 0 0 0 0 0 0 0 0 0 0 0 0 0 0 0 0 0 0 0 0 0 0 0 0 0 0 0 0 0 0 0 0 0 0 0
0 0 0 0 0 0 0 0 0 0 0 0 0 0 0 0 0 0 0 0 0 0 0 0 0 0 0 0 0 0 0 0 0 0 0 0 0 0
Wind_Speed
2 2 2 2 2 2 3 3 4 6 6 3 2 2 3 3 7 5 6 11 14 14 15 15 16 17 18 18 19 19 19 19 18 18 18 19 18 18
3 3 3 3 2 2 2 3 3 5 7 4 4 5 5 5 9 6 6 12 13 14 15 16 16 17 18 18 19 19 19 19 19 18 18 18 18 18
4 4 4 4 3 3 3 3 3 4 7 7 4 4 5 6 7 6 6 6 7 13 15 15 16 16 17 18 18 19 19 19 19 19 18 18 17 18
5 4 5 4 4 3 3 4 4 4 5 9 7 5 6 6 7 7 7 6 6 12 15 16 16 16 17 18 19 19 19 19 18 18 17 17 17 18
4 4 5 5 5 4 4 4 4 5 4 6 8 6 5 5 7 7 7 6 7 10 14 14 15 17 17 18 18 18 18 18 18 17 17 17 17 18
5 5 5 5 5 5 5 5 5 5 5 5 6 6 6 6 6 7 8 6 7 8 9 11 14 16 17 17 17 18 17 17 16 16 16 16 17 17
5 5 5 7 8 7 6 5 5 5 5 6 6 7 7 7 7 7 9 8 7 5 6 7 7 7 8 13 15 17 17 16 16 16 15 15 16 16
5 5 5 5 8 10 10 10 9 7 7 6 6 7 9 8 8 8 8 9 8 4 6 8 6 7 6 6 14 18 16 16 16 16 15 15 15 15
4 5 5 5 6 6 8 10 9 10 10 7 7 8 9 9 10 10 9 9 9 7 7 9 6 7 6 9 17 16 16 16 16 16 16 15 15 14
4 5 5 6 7 8 6 7 7 7 8 6 5 7 7 8 8 9 9 9 9 6 5 7 6 7 8 7 13 15 16 16 16 16 15 15 15 15
4 4 5 6 10 12 8 7 8 7 9 12 13 12 14 14 12 7 7 7 8 7 4 5 6 8 8 6 8 14 16 16 16 16 16 16 15 14
4 5 6 9 12 12 7 6 8 8 8 9 9 10 9 10 12 7 6 6 7 6 4 5 6 6 8 5 6 7 9 13 16 16 16 16 15 9
4 4 5 12 13 13 10 6 9 10 6 7 6 6 6 6 6 6 5 5 6 7 6 6 6 5 6 8 8 7 6 7 8 10 12 15 15 11
4 4 6 12 13 13 10 10 13 10 5 5 6 6 7 7 7 7 7 6 7 9 9 7 6 6 7 8 8 7 7 7 7 7 7 12 12 13
4 7 10 12 11 9 11 12 9 5 5 5 6 6 6 7 8 7 7 7 8 7 7 7 7 7 6 7 8 8 8 7 5 6 7 7 7 6
4 6 9 10 8 8 7 7 5 4 5 5 6 6 6 6 6 6 7 7 7 7 5 6 6 7 7 8 8 9 7 7 7 8 8 7 7 5
3 3 3 4 5 5 5 4 4 5 5 5 6 7 7 7 7 6 5 5 5 7 8 6 5 6 7 7 7 7 7 7 7 7 7 8 6 5
4 3 4 4 4 5 5 6 5 5 5 6 6 6 7 7 7 6 5 5 7 8 8 7 7 7 5 5 7 7 6 7 7 7 6 6 8 6
3 3 4 4 4 5 5 5 5 5 5 5 6 6 6 7 7 7 7 6 7 7 7 6 5 5 7 8 7 5 6 7 7 6 5 5 7 8
2 3 4 4 4 4 5 5 5 5 5 5 6 6 6 6 7 7 7 7 7 8 8 6 5 4 5 6 7 8 10 7 6 7 7 6 6 9
3 3 3 4 4 4 4 5 5 5 5 5 5 6 6 6 6 7 7 9 7 7 8 8 7 8 6 5 6 7 7 8 9 7 7 6 6 5
3 4 4 4 4 4 4 4 5 5 5 5 5 6 5 5 6 8 7 7 7 7 8 8 7 6 3 4 7 9 9 9 9 11 9 7 5 4
4 4 4 4 4 4 4 4 5 5 5 5 5 5 5 6 6 6 7 7 7 8 8 7 6 5 4 5 6 7 9 9 7 7 6 9 10 11
Wind_Direction
315 315 309 307 310 308 311 302 295 300 297 295 305 312 314 307 315 317 311 311 315 315 317 317 317 318 318 318 318 317 316 316 316 316 315 314 313 313
332 331 324 321 318 318 309 300 289 283 286 298 302 308 313 314 315 310 302 310 309 311 313 314 316 316 317 317 316 316 316 316 316 314 313 312 313 312
346 347 345 341 332 326 318 311 302 293 286 294 299 308 307 309 312 310 305 302 304 308 310 312 313 314 315 315 315 315 315 314 314 312 311 312 314 313
349 348 344 342 339 330 330 325 316 308 297 300 306 310 307 309 309 309 312 310 305 307 310 309 311 315 315 314 314 313 313 312 312 312 311 312 311 310
347 345 341 343 335 331 331 327 320 316 304 298 302 306 304 311 313 310 307 303 306 308 306 306 310 313 311 312 313 312 310 310 310 312 312 311 308 307
355 351 347 342 331 329 330 329 328 325 318 308 306 309 310 314 315 317 315 313 308 308 304 309 310 310 309 309 311 310 309 308 309 311 311 311 309 307
355 352 348 347 344 341 335 334 329 323 321 318 315 316 319 326 324 319 310 312 303 297 305 305 305 300 304 304 306 306 308 310 313 313 311 311 310 309
349 346 343 348 348 349 346 340 335 327 322 317 313 315 317 320 318 316 314 317 312 319 315 303 301 297 298 296 303 308 310 312 312 313 313 314 311 308
340 339 340 341 338 339 343 343 340 336 333 324 314 314 314 317 316 314 313 309 299 305 310 298 302 297 299 301 306 306 311 316 315 313 312 311 313 313
341 338 335 334 334 339 340 337 333 332 329 327 314 310 311 314 312 309 306 302 295 294 302 293 304 303 306 301 302 308 314 316 316 314 314 315 314 313
337 340 335 328 332 340 342 334 329 328 333 330 326 323 325 328 329 325 321 318 311 309 309 292 303 310 302 295 302 314 319 318 317 317 316 315 315 314
337 340 337 333 335 339 340 332 324 326 330 328 329 330 330 328 333 330 316 311 310 305 320 321 310 322 309 299 310 314 314 312 315 315 315 315 315 313
332 335 334 334 338 340 340 333 324 330 330 327 324 325 328 329 329 327 319 305 298 287 300 315 303 306 292 302 308 306 308 312 314 310 311 312 312 310
327 328 327 333 339 341 340 335 338 341 338 329 326 327 328 326 323 320 312 300 284 281 287 292 286 291 295 296 296 304 308 305 305 305 308 308 307 304
330 329 331 335 340 342 341 341 345 347 338 331 325 320 318 315 316 315 313 309 300 290 288 286 284 287 281 280 287 295 306 306 300 305 308 305 302 302
338 339 340 342 343 343 344 346 346 337 330 321 316 313 314 318 319 321 319 325 321 313 303 294 291 288 285 280 278 284 290 293 306 309 308 304 301 295
342 341 343 343 345 341 339 337 336 337 333 326 320 319 321 322 320 323 319 321 316 314 319 323 314 295 275 273 279 277 286 293 297 307 312 308 304 297
349 338 335 334 329 327 326 326 327 329 325 322 319 318 320 321 320 323 322 319 314 311 312 317 325 327 321 286 252 275 289 297 305 307 303 304 303 303
358 330 322 322 319 316 315 315 316 318 318 318 318 320 321 321 320 320 322 321 316 311 309 313 323 331 328 320 307 288 300 307 309 308 303 296 293 297
326 310 308 309 308 309 309 310 310 314 316 317 316 317 318 317 318 319 318 316 313 311 312 314 317 316 303 297 298 298 299 298 303 304 306 303 289 291
302 297 295 297 299 300 301 302 302 305 308 310 310 311 313 315 314 315 314 312 309 309 310 310 310 308 294 293 294 298 300 304 305 300 304 308 310 311
290 290 291 288 290 291 295 298 301 302 305 305 306 308 309 309 309 310 312 312 309 304 301 302 310 314 306 298 299 303 311 316 315 313 302 290 294 301
283 284 285 286 285 288 291 293 294 296 298 300 303 305 307 307 306 305 306 305 305 307 309 312 317 317 309 300 300 303 309 317 324 329 323 323 317 304